Hourly Data Report for November 27, 2021

ST-JOVITE
QUEBEC
Current Station Operator: ECCC - MSC

46°04'49.000" N
74°33'21.000" W
238.50 m
703GDKB
71376
WJT

Download Data

Hourly Data (November 2021)
Hourly Data Report for November 27, 2021
TIME
LST
Temp Definition
°C
Dew Point Definition
°C
Rel Hum Definition
%
Precip. Amount Definition
mm

Wind Dir Definition
10's deg

Wind Spd Definition
km/h
Visibility Definition
km
Stn Press Definition
kPa
Hmdx Definition


Wind Chill Definition


Weather Definition


00:00 -4.2 -5.0 94 0.0 31 3   97.40   -5 LegendNANA
01:00 -4.5 -5.4 93 0.0 30 5   97.45   -7 LegendNANA
02:00 -5.1 -6.3 92 0.0 29 7   97.52   -8 LegendNANA
03:00 -5.9 -7.3 90 0.0 30 6   97.58   -9 LegendNANA
04:00 -6.1 -7.2 92 0.0 29 5   97.58   -9 LegendNANA
05:00 -6.3 -7.7 90 0.0 29 4   97.60   -8 LegendNANA
06:00 -6.4 -7.7 90 0.0 29 6   97.64   -9 LegendNANA
07:00 -6.5 -8.0 89 0.0 30 8   97.67   -10 LegendNANA
08:00 -6.7 -8.1 90 0.0 30 5   97.73   -9 LegendNANA
09:00 -6.7 -8.4 88 0.0 29 5   97.77   -9 LegendNANA
10:00 -6.7 -8.5 87 0.0 28 6   97.82   -10 LegendNANA
11:00 -6.4 -8.7 84 0.0 32 5   97.84   -9 LegendNANA
12:00 -6.1 -8.9 81 0.0 32 6   97.83   -9 LegendNANA
13:00 -5.9 -8.8 80 0.0 29 4   97.85   -8 LegendNANA
14:00 -6.2 -8.8 82 0.0 30 5   97.87   -9 LegendNANA
15:00 -6.4 -8.9 82 0.0 28 5   97.93   -9 LegendNANA
16:00 -6.3 -8.5 84 0.0 28 4   97.94   -8 LegendNANA
17:00 -6.4 -7.7 91 0.0 27 4   97.98   -8 LegendNANA
18:00 -6.9 -8.4 89 0.0 26 6   98.00   -10 LegendNANA
19:00 -7.1 -8.4 91 0.0 30 3   98.03   -9 LegendNANA
20:00 -7.8 -9.4 88 0.0 30 2   98.04   -9 LegendNANA
21:00 -8.5 -10.0 88 0.0 31 2   98.04   -10 LegendNANA
22:00 -9.2 -10.5 90 0.0 30 1   98.03   -10 LegendNANA
23:00 -9.8 -10.7 93 0.0 31 1   98.07   -10 LegendNANA

Notes on Data Quality.

Legend

  • E = Estimated
  • M = Missing
  • NA = Not Available*
  • [empty] = Indicates an unobserved value
Date modified: